Alice Springs, Australia

9:40 AM ACST on October 23, 2019 (GMT +0930)
Alice Springs

Weather History for YBAS - August, 2019

Change the Weather History Date:

Saturday, August 10, 2019

  Actual Average Record
Temperature  
Mean Temperature 52 °F -  
Max Temperature 64 °F 75 °F 87 °F (2017)
Min Temperature 39 °F 45 °F 32 °F (2005)
Degree Days  
Heating Degree Days 14    
Growing Degree Days 2 (Base 50)    
Moisture  
Dew Point 30 °F    
Average Humidity 40    
Maximum Humidity 66    
Minimum Humidity 19    
Precipitation  
Precipitation 0.00 in 0.01 in - ()
Sea Level Pressure  
Sea Level Pressure 30.21 in    
Wind  
Wind Speed 6 mph ()    
Max Wind Speed 12 mph    
Max Gust Speed -    
Visibility 6.2 miles    
Events      
Averages and records for this station are not official NWS values.
T = Trace of Precipitation, MM = Missing Value Source: Averaged Metar Reports

Daily Weather History Graph

Daily Weather History Graph

Search for Another Location

Airport or City:

Astronomy

Aug. 10, 2019 Rise Set
Actual Time 7:04 AM ACST 6:15 PM ACST
Civil Twilight 6:41 AM ACST 6:38 PM ACST
Nautical Twilight 6:14 AM ACST 7:05 PM ACST
Astronomical Twilight 5:47 AM ACST 7:32 PM ACST
Moon 1:49 PM ACST (8/10) 2:37 AM ACST (8/10)
Length of Visible Light 11h 57m
Length of Day
11h 10m
Waxing Gibbous, 74% of the Moon is Illuminated
Aug 10
Waxing Gibbous
Aug 15
Full
Aug 24
Last Quarter
Aug 30
New
Sep 6
First Quarter

Hourly Weather History & Observations

Time (ACST) Temp. Windchill Dew Point Humidity Pressure Visibility Wind Dir Wind Speed Gust Speed Precip Events Conditions
12:00 AM 47 °F - 19 °F 20% 30.17 in - NW 5.8 mph - -   Clear
12:00 AM 46.4 °F 43.5 °F 19.4 °F 34% 30.18 in 6.2 mi NW 5.8 mph - N/A   Unknown
12:30 AM 45 °F - 19 °F 22% 30.17 in - WNW 6.9 mph - -  
12:30 AM 44.6 °F 40.7 °F 19.4 °F 37% 30.18 in 6.2 mi WNW 6.9 mph - N/A   Unknown
1:00 AM 44.6 °F 40.7 °F 19.4 °F 37% 30.18 in 6.2 mi NW 6.9 mph - N/A   Unknown
1:30 AM 42.8 °F 40.1 °F 17.6 °F 36% 30.18 in 6.2 mi WSW 4.6 mph - N/A   Unknown
2:00 AM 44.6 °F 40.7 °F 19.4 °F 37% 30.18 in 6.2 mi WNW 6.9 mph - N/A   Unknown
2:30 AM 45 °F - 22 °F 26% 30.17 in - West 5.8 mph - -  
2:30 AM 44.6 °F 41.4 °F 21.2 °F 39% 30.18 in 6.2 mi West 5.8 mph - N/A   Unknown
3:00 AM 45 °F - 21 °F 26% 30.17 in - South 5.8 mph - -   Clear
3:00 AM 44.6 °F 41.4 °F 21.2 °F 39% 30.18 in 6.2 mi South 5.8 mph - N/A   Unknown
3:30 AM 44 °F - 23 °F 30% 30.17 in - SSW 1.2 mph - -  
3:30 AM 44.6 °F - 23.0 °F 43% 30.18 in 6.2 mi SSW 1.2 mph - N/A   Unknown
4:00 AM 44.6 °F - 24.8 °F 46% 30.18 in 6.2 mi NW 2.3 mph - N/A   Unknown
4:30 AM 44.6 °F 43.1 °F 26.6 °F 49% 30.18 in 6.2 mi WNW 3.5 mph - N/A   Unknown
5:00 AM 41.0 °F 37.1 °F 26.6 °F 57% 30.18 in 6.2 mi WNW 5.8 mph - N/A   Unknown
5:30 AM 41 °F - 25 °F 39% 30.18 in - WNW 5.8 mph - -  
5:30 AM 41.0 °F 37.1 °F 24.8 °F 53% 30.18 in 6.2 mi WNW 5.8 mph - N/A   Unknown
6:00 AM 42 °F - 27 °F 44% 30.19 in - West 6.9 mph - -   Clear
6:00 AM 42.8 °F 38.6 °F 26.6 °F 53% 30.21 in 6.2 mi West 6.9 mph - N/A   Unknown
6:30 AM 42 °F - 28 °F 45% 30.20 in - West 5.8 mph - -  
6:30 AM 41.0 °F 37.1 °F 28.4 °F 61% 30.21 in 6.2 mi West 5.8 mph - N/A   Unknown
7:00 AM 41.0 °F 37.1 °F 28.4 °F 61% 30.21 in 6.2 mi West 5.8 mph - N/A   Unknown
7:30 AM 41.0 °F 37.1 °F 28.4 °F 61% 30.24 in 6.2 mi West 5.8 mph - N/A   Unknown
8:00 AM 48.2 °F - 32.0 °F 54% 30.24 in 6.2 mi NW 4.6 mph - N/A   Unknown
8:30 AM 49 °F - 34 °F 44% 30.25 in - SSW 1.2 mph - -  
8:30 AM 50.0 °F - 33.8 °F 54% 30.24 in 6.2 mi SSW 1.2 mph - N/A   Unknown
9:00 AM 53 °F - 35 °F 38% 30.26 in - SSE 5.8 mph - -   Clear
9:00 AM 53.6 °F - 35.6 °F 51% 30.27 in 6.2 mi SSE 5.8 mph - N/A   Unknown
9:30 AM 55 °F - 36 °F 38% 30.27 in - ESE 8.1 mph - -  
9:30 AM 55.4 °F - 37.4 °F 51% 30.27 in 6.2 mi ESE 8.1 mph - N/A   Unknown
10:30 AM 57.2 °F - 37.4 °F 48% 30.30 in 6.2 mi SSE 11.5 mph - N/A   Unknown
11:00 AM 59.0 °F - 37.4 °F 45% 30.27 in 6.2 mi ESE 9.2 mph - N/A   Mostly Cloudy
11:30 AM 60 °F - 37 °F 31% 30.27 in - SSE 11.5 mph - -  
11:30 AM 60.8 °F - 37.4 °F 42% 30.27 in 6.2 mi SSE 11.5 mph - N/A   Scattered Clouds
12:00 PM 61 °F - 37 °F 29% 30.25 in - SSE 11.5 mph - -   Clear
12:00 PM 60.8 °F - 37.4 °F 42% 30.27 in 6.2 mi SSE 11.5 mph - N/A   Scattered Clouds
12:30 PM 62.6 °F - 37.4 °F 39% 30.24 in 6.2 mi SSE 9.2 mph - N/A   Scattered Clouds
1:00 PM 62.6 °F - 35.6 °F 37% 30.24 in 6.2 mi SSE 10.4 mph - N/A   Unknown
1:30 PM 62.6 °F - 33.8 °F 34% 30.21 in 6.2 mi South 10.4 mph - N/A   Unknown
2:30 PM 64 °F - 35 °F 23% 30.18 in - SSE 11.5 mph - -  
2:30 PM 64.4 °F - 35.6 °F 34% 30.18 in 6.2 mi SSE 11.5 mph - N/A   Unknown
3:00 PM 64 °F - 35 °F 22% 30.17 in - South 8.1 mph - -   Clear
3:00 PM 64.4 °F - 33.8 °F 32% 30.18 in 6.2 mi South 8.1 mph - N/A   Unknown
3:30 PM 63 °F - 33 °F 21% 30.17 in - South 10.4 mph - -  
3:30 PM 62.6 °F - 33.8 °F 34% 30.18 in 6.2 mi South 10.4 mph - N/A   Unknown
4:30 PM 64.4 °F - 32.0 °F 30% 30.18 in 6.2 mi SE 10.4 mph - N/A   Unknown
5:00 PM 64.4 °F - 33.8 °F 32% 30.18 in 6.2 mi SSE 9.2 mph - N/A   Unknown
5:30 PM 64 °F - 32 °F 19% 30.17 in - SSE 10.4 mph - -  
5:30 PM 64.4 °F - 32.0 °F 30% 30.18 in 6.2 mi SSE 10.4 mph - N/A   Unknown
6:00 PM 62 °F - 33 °F 23% 30.18 in - SSE 10.4 mph - -   Clear
6:00 PM 62.6 °F - 33.8 °F 34% 30.18 in 6.2 mi SSE 10.4 mph - N/A   Unknown
6:30 PM 60 °F - 35 °F 26% 30.19 in - SSE 6.9 mph - -  
6:30 PM 60.8 °F - 33.8 °F 36% 30.21 in 6.2 mi SSE 6.9 mph - N/A   Unknown
7:00 PM 57.2 °F - 33.8 °F 41% 30.21 in 6.2 mi SE 6.9 mph - N/A   Unknown
7:30 PM 55.4 °F - 33.8 °F 44% 30.21 in 6.2 mi SSE 6.9 mph - N/A   Unknown
8:00 PM 53.6 °F - 33.8 °F 47% 30.24 in 6.2 mi SSE 6.9 mph - N/A   Unknown
8:30 PM 52 °F - 33 °F 35% 30.24 in - SSE 6.9 mph - -  
8:30 PM 51.8 °F - 32.0 °F 47% 30.24 in 6.2 mi SSE 6.9 mph - N/A   Unknown
9:00 PM 51 °F - 33 °F 38% 30.25 in - SSE 5.8 mph - -   Clear
9:00 PM 51.8 °F - 33.8 °F 50% 30.24 in 6.2 mi SSE 5.8 mph - N/A   Unknown
9:30 PM 50 °F - 33 °F 40% 30.25 in - SSE 6.9 mph - -  
9:30 PM 50.0 °F - 33.8 °F 54% 30.27 in 6.2 mi SSE 6.9 mph - N/A   Unknown
10:30 PM 48.2 °F - 33.8 °F 58% 30.27 in 6.2 mi South 5.8 mph - N/A   Unknown
11:00 PM 46.4 °F - 33.8 °F 62% 30.27 in 6.2 mi South 1.2 mph - N/A   Unknown
11:30 PM 45 °F - 33 °F 52% 30.26 in - East 3.5 mph - -  
11:30 PM 44.6 °F 43.1 °F 33.8 °F 66% 30.27 in 6.2 mi East 3.5 mph - N/A   Unknown